• Join FlightAware (Why Join?)
  • Login
  • US Flag GB Flag 
07:42 EDT


 

Airport Tracker/Info


-or-


 

Live Flight TrackerFlight Track Log ✈ CTL311 ✈ 10-May-2013 ✈ KBKL - KJXN

Flight Track Log - Related Links

Times and Time Zones

All times are in EDT time to prevent confusion due to time zone crossing. See the CTL311 flight status page for this flight to view local times or setup timezone preferences in your user account.

Time Position Orientation Groundspeed Altitude Reporting Facility
EDT Latitude Longitude Course Direction KTS MPH feet Rate Location/Type
22:29 41.5125 -81.6950 297° West 113 130 900  Level Cleveland Center
22:29 41.5167 -81.7061 297° West 111 128 1,300 960 Climbing Cleveland Center
22:30 41.5500 -81.7178 345° North 131 151 2,200 840 Climbing Cleveland Center
22:31 41.5808 -81.7461 325° Northwest 141 162 3,100 840 Climbing Cleveland Center
22:32 41.6033 -81.7911 304° West 140 161 4,000 840 Climbing Cleveland Center
22:34 41.6194 -81.8358 296° West 132 152 4,800 780 Climbing Cleveland Center
22:35 41.6378 -81.8778 300° West 134 154 5,600 540 Climbing Cleveland Center
22:36 41.6519 -81.9253 292° West 135 155 6,000 180 Climbing Cleveland Center
22:37 41.6658 -81.9786 289° West 152 175 6,000  Level Cleveland Center
22:38 41.6778 -82.0372 285° West 154 177 6,100  Climbing Cleveland Center
22:39 41.6917 -82.0847 291° West 155 178 6,000 -60 Descending Cleveland Center
22:40 41.7033 -82.1406 286° West 155 178 6,000  Level Cleveland Center
22:41 41.7150 -82.1964 286° West 151 174 6,100  Climbing Cleveland Center
22:41 41.7289 -82.2469 290° West 153 176 6,100  Level Cleveland Center
22:42 41.7389 -82.2861 289° West 156 180 6,100 -60 Level Cleveland Center
22:43 41.7525 -82.3450 287° West 155 178 6,000 -60 Descending Cleveland Center
22:44 41.7683 -82.4067 289° West 151 174 6,000  Level Cleveland Center
22:45 41.7842 -82.4572 293° West 152 175 6,000  Level Cleveland Center
22:46 41.7956 -82.5133 285° West 151 174 6,100  Climbing Cleveland Center
22:48 41.8133 -82.5722 292° West 151 174 6,000 -60 Descending Cleveland Center
22:49 41.8292 -82.6286 291° West 150 173 6,000  Level Cleveland Center
22:49 41.8367 -82.6678 284° West 148 170 6,000  Level Cleveland Center
22:50 41.8525 -82.7186 293° West 148 170 6,000  Level Cleveland Center
22:51 41.8642 -82.7664 288° West 149 171 6,000  Level Cleveland Center
22:52 41.8775 -82.8281 286° West 146 168 6,000  Level Cleveland Center
22:53 41.8911 -82.8761 291° West 146 168 6,000  Level Cleveland Center
22:54 41.8983 -82.9294 280° West 139 160 6,000 -60 Level Cleveland Center
22:55 41.9142 -82.9800 293° West 149 171 5,900 -60 Descending Cleveland Center
22:56 41.9256 -83.0281 288° West 144 166 5,900  Level Cleveland Center
22:57 41.9392 -83.0789 290° West 147 169 6,000  Climbing Cleveland Center
22:58 41.9547 -83.1297 292° West 143 165 6,000  Level Cleveland Center
22:59 41.9681 -83.1778 290° West 149 171 6,000  Level Cleveland Center
23:00 41.9836 -83.2286 292° West 150 173 6,000 -60 Level Cleveland Center
23:01 41.9908 -83.2819 280° West 153 176 5,900 -60 Descending Cleveland Center
23:02 41.9997 -83.3383 282° West 151 174 5,900  Level Cleveland Center
23:03 42.0108 -83.3947 285° West 151 174 6,000  Climbing Cleveland Center
23:04 42.0242 -83.4456 289° West 158 182 5,900 -120 Descending Cleveland Center
23:05 42.0375 -83.5019 288° West 158 182 5,800  Descending Cleveland Center
23:06 42.0528 -83.5531 292° West 147 169 6,000 60 Climbing Cleveland Center
23:07 42.0661 -83.6069 288° West 152 175 6,000  Level Cleveland Center
23:08 42.0728 -83.6658 279° West 151 174 6,000 -60 Level Cleveland Center
23:09 42.0858 -83.7225 287° West 156 180 5,900  Descending Cleveland Center
23:10 42.0822 -83.7783 265° West 155 178 6,000  Climbing Cleveland Center
23:11 42.0953 -83.8322 288° West 158 182 6,000  Level Cleveland Center
23:13 42.1163 -83.8961 294° West  Level FlightAware Approximate
23:20 42.2220 -84.3095 285° West  Level FlightAware Approximate
23:21 42.2341 -84.3701 285° West  Level FlightAware Approximate
23:22 42.2462 -84.4306 285° West  Level FlightAware Approximate
23:23 42.2500 -84.4500 285° West  Level FlightAware Approximate
23:24 42.2604 -84.4604 285° West  Level Estimated
23:25 42.2604 -84.4604 285° West  Level Estimated
23:26 42.2604 -84.4604 285° West  Level Estimated
23:27 42.2604 -84.4604 285° West  Level Estimated
23:28 42.2604 -84.4604 285° West  Level Estimated
23:29 42.2604 -84.4604 285° West  Level Estimated
23:30 42.2604 -84.4604 285° West  Level Estimated
23:31 42.2604 -84.4604 285° West  Level Estimated
23:32 42.2604 -84.4604 285° West  Level Estimated